Location: Follega
(52.8850°N, 5.7362°E)
Time: 21:11:03
(UTC+00:00)

STARLINK-1236 - Pass Details

Date: 02 October 2020
Orbit: 548 x 551 km, 53.0° (Epoch: 26 October)

Event Time Altitude Azimuth Distance (km) Brightness Sun altitude
Exits shadow 04:43:58 13° 272° (W) 1,670 5.4 -9.4°
Maximum altitude 04:47:07 29° 215° (SW) 1,019 4.6 -8.9°
Drops below altitude 10° 04:50:44 10° 155° (SSE) 1,823 6.6 -8.4°
Sets 04:53:09 0° 144° (SE) 2,714 7.6 -8.0°
